Weather History for KMRF - May, 2014

Change the Weather History Date:

Wednesday, May 14, 2014

  Actual Average Record
Temperature  
Mean Temperature 47 °F -  
Max Temperature 62 °F 81 °F 93 °F (2003)
Min Temperature 32 °F 49 °F 32 °F (2014)
Degree Days  
Heating Degree Days 18    
Moisture  
Dew Point 18 °F    
Average Humidity 33    
Maximum Humidity 65    
Minimum Humidity 15    
Precipitation  
Precipitation 0.00 in - - ()
Sea Level Pressure  
Sea Level Pressure 30.41 in    
Wind  
Wind Speed 7 mph (NNE)    
Max Wind Speed 13 mph    
Max Gust Speed 21 mph    
Visibility 10 miles    
Events      
Averages and records for this station are not official NWS values.
T = Trace of Precipitation, MM = Missing Value Source: NWS Daily Summary

Daily Weather History Graph

Daily Weather History Graph

Search for Another Location

Airport or City:

Trip Planner

Search our weather history database for the weather conditions in past years. The results will help you decide how hot, cold, wet, or windy it might be!

Date:

Astronomy

May. 14, 2014 Rise Set
Actual Time 7:02 AM CDT 8:42 PM CDT
Civil Twilight 6:36 AM CDT 9:08 PM CDT
Nautical Twilight 6:04 AM CDT 9:40 PM CDT
Astronomical Twilight 5:31 AM CDT 10:13 PM CDT
Moon 8:52 PM CDT (5/14) 6:59 AM CDT (5/14)
Length of Visible Light 14h 32m
Length of Day
13h 40m
Full, 100% of the Moon is Illuminated
May 14
Full
May 14
Full
May 21
Last Quarter
May 28
New
Jun 5
First Quarter

Hourly Weather History & Observations

Time (CDT) Temp. Windchill Dew Point Humidity Pressure Visibility Wind Dir Wind Speed Gust Speed Precip Events Conditions
12:15 AM 44.6 °F 39.7 °F 21.2 °F 39% 30.42 in 10.0 mi NE 9.2 mph - N/A   Clear
12:35 AM 42.8 °F 38.0 °F 21.2 °F 42% 30.42 in 10.0 mi NE 8.1 mph - N/A   Clear
12:55 AM 42.8 °F 37.5 °F 21.2 °F 42% 30.42 in 10.0 mi NE 9.2 mph - N/A   Clear
1:15 AM 42.8 °F 36.6 °F 23.0 °F 46% 30.42 in 10.0 mi NE 11.5 mph - N/A   Clear
1:35 AM 42.8 °F 37.0 °F 23.0 °F 46% 30.42 in 10.0 mi NE 10.4 mph - N/A   Clear
1:55 AM 42.8 °F 36.6 °F 24.8 °F 49% 30.42 in 10.0 mi NE 11.5 mph - N/A   Clear
2:15 AM 42.8 °F 38.0 °F 24.8 °F 49% 30.42 in 10.0 mi NE 8.1 mph - N/A   Clear
2:35 AM 39.2 °F 35.9 °F 24.8 °F 56% 30.42 in 10.0 mi NE 4.6 mph - N/A   Clear
2:55 AM 37.4 °F 33.8 °F 21.2 °F 52% 30.42 in 10.0 mi North 4.6 mph - N/A   Clear
3:15 AM 35.6 °F 30.7 °F 21.2 °F 56% 30.42 in 10.0 mi NNW 5.8 mph - N/A   Clear
3:35 AM 35.6 °F 31.7 °F 21.2 °F 56% 30.42 in 10.0 mi North 4.6 mph - N/A   Clear
3:55 AM 35.6 °F 31.7 °F 21.2 °F 56% 30.42 in 10.0 mi NNW 4.6 mph - N/A   Clear
4:15 AM 33.8 °F 29.6 °F 19.4 °F 56% 30.41 in 10.0 mi NNW 4.6 mph - N/A   Clear
4:35 AM 33.8 °F 27.7 °F 19.4 °F 56% 30.41 in 10.0 mi North 6.9 mph - N/A   Clear
4:55 AM 33.8 °F 27.7 °F 21.2 °F 60% 30.41 in 10.0 mi North 6.9 mph - N/A   Clear
5:15 AM 35.6 °F 29.2 °F 23.0 °F 60% 30.42 in 10.0 mi NNW 8.1 mph - N/A   Clear
5:35 AM 35.6 °F 29.9 °F 23.0 °F 60% 30.42 in 10.0 mi NNW 6.9 mph - N/A   Clear
5:55 AM 33.8 °F 28.6 °F 21.2 °F 60% 30.42 in 10.0 mi North 5.8 mph - N/A   Clear
6:15 AM 33.8 °F 28.6 °F 21.2 °F 60% 30.43 in 10.0 mi NNW 5.8 mph - N/A   Clear
6:35 AM 33.8 °F 28.6 °F 23.0 °F 65% 30.43 in 10.0 mi North 5.8 mph - N/A   Clear
6:55 AM 32.0 °F 25.6 °F 21.2 °F 64% 30.44 in 10.0 mi North 6.9 mph - N/A   Clear
7:15 AM 33.8 °F 29.6 °F 21.2 °F 60% 30.45 in 10.0 mi NNW 4.6 mph - N/A   Clear
7:35 AM 33.8 °F 28.6 °F 19.4 °F 56% 30.45 in 10.0 mi NW 5.8 mph - N/A   Clear
7:55 AM 35.6 °F 32.8 °F 23.0 °F 60% 30.46 in 10.0 mi NNW 3.5 mph - N/A   Clear
8:15 AM 39.2 °F - 24.8 °F 56% 30.46 in 10.0 mi Calm Calm - N/A   Clear
8:35 AM 44.6 °F - 26.6 °F 49% 30.46 in 10.0 mi Calm Calm - N/A   Clear
8:55 AM 46.4 °F 45.2 °F 24.8 °F 43% 30.47 in 10.0 mi SSW 3.5 mph - N/A   Clear
10:15 AM 51.8 °F - 21.2 °F 30% 30.48 in 10.0 mi NE 4.6 mph - N/A   Clear
10:35 AM 53.6 °F - 21.2 °F 28% 30.49 in 10.0 mi NNE 10.4 mph - N/A   Clear
10:55 AM 53.6 °F - 21.2 °F 28% 30.49 in 10.0 mi NE 3.5 mph 16.1 mph N/A   Clear
11:15 AM 53.6 °F - 21.2 °F 28% 30.48 in 10.0 mi ENE 6.9 mph - N/A   Clear
11:35 AM 55.4 °F - 19.4 °F 25% 30.48 in 10.0 mi NE 8.1 mph 16.1 mph N/A   Clear
11:55 AM 55.4 °F - 19.4 °F 25% 30.47 in 10.0 mi NNE 12.7 mph 20.7 mph N/A   Clear
12:15 PM 55.4 °F - 19.4 °F 25% 30.47 in 10.0 mi Calm Calm - N/A   Clear
12:35 PM 57.2 °F - 19.4 °F 23% 30.46 in 10.0 mi NNE 10.4 mph 18.4 mph N/A   Clear
12:55 PM 55.4 °F - 19.4 °F 25% 30.46 in 10.0 mi NNW 8.1 mph 17.3 mph N/A   Clear
1:15 PM 59.0 °F - 17.6 °F 20% 30.45 in 10.0 mi North 5.8 mph 17.3 mph N/A   Clear
1:35 PM 57.2 °F - 17.6 °F 21% 30.44 in 10.0 mi North 6.9 mph - N/A   Clear
1:55 PM 59.0 °F - 17.6 °F 20% 30.44 in 10.0 mi ENE 10.4 mph - N/A   Clear
2:15 PM 60.8 °F - 17.6 °F 19% 30.43 in 10.0 mi NE 12.7 mph 19.6 mph N/A   Clear
2:35 PM 60.8 °F - 17.6 °F 19% 30.42 in 10.0 mi North 10.4 mph 18.4 mph N/A   Clear
2:55 PM 60.8 °F - 15.8 °F 17% 30.42 in 10.0 mi NNE 11.5 mph 16.1 mph N/A   Clear
3:15 PM 60.8 °F - 15.8 °F 17% 30.41 in 10.0 mi NW 8.1 mph 17.3 mph N/A   Clear
3:35 PM 62.6 °F - 15.8 °F 16% 30.40 in 10.0 mi NE 9.2 mph - N/A   Clear
3:55 PM 62.6 °F - 15.8 °F 16% 30.39 in 10.0 mi NW 5.8 mph - N/A   Clear
4:15 PM 62.6 °F - 17.6 °F 18% 30.38 in 10.0 mi WSW 4.6 mph - N/A   Clear
4:35 PM 62.6 °F - 15.8 °F 16% 30.37 in 10.0 mi North 8.1 mph - N/A   Clear
4:55 PM 62.6 °F - 15.8 °F 16% 30.36 in 10.0 mi WSW 3.5 mph - N/A   Clear
5:15 PM 62.6 °F - 15.8 °F 16% 30.35 in 10.0 mi East 4.6 mph - N/A   Clear
5:35 PM 62.6 °F - 15.8 °F 16% 30.34 in 10.0 mi ENE 8.1 mph - N/A   Clear
5:55 PM 62.6 °F - 15.8 °F 16% 30.33 in 10.0 mi Calm Calm - N/A   Clear
6:15 PM 62.6 °F - 15.8 °F 16% 30.33 in 10.0 mi ENE 5.8 mph - N/A   Clear
6:55 PM 62.6 °F - 15.8 °F 16% 30.33 in 10.0 mi North 8.1 mph 18.4 mph N/A   Clear
7:15 PM 62.6 °F - 15.8 °F 16% 30.33 in 10.0 mi North 5.8 mph - N/A   Clear
7:35 PM 62.6 °F - 15.8 °F 16% 30.33 in 10.0 mi NE 5.8 mph - N/A   Clear
7:55 PM 62.6 °F - 14.0 °F 15% 30.33 in 10.0 mi NNE 10.4 mph - N/A   Clear
8:15 PM 60.8 °F - 12.2 °F 15% 30.34 in 10.0 mi NE 10.4 mph - N/A   Clear
8:35 PM 59.0 °F - 10.4 °F 15% 30.35 in 10.0 mi NNE 8.1 mph - N/A   Clear
8:55 PM 55.4 °F - 10.4 °F 17% 30.35 in 10.0 mi NE 6.9 mph - N/A   Clear
9:15 PM 53.6 °F - 10.4 °F 18% 30.37 in 10.0 mi ENE 8.1 mph - N/A   Clear
9:35 PM 53.6 °F - 10.4 °F 18% 30.37 in 10.0 mi NE 9.2 mph - N/A   Clear
9:55 PM 51.8 °F - 10.4 °F 19% 30.38 in 10.0 mi NE 8.1 mph - N/A   Clear
10:15 PM 50.0 °F - 8.6 °F 19% 30.38 in 10.0 mi ENE 9.2 mph - N/A   Clear
10:35 PM 46.4 °F 42.4 °F 8.6 °F 22% 30.40 in 10.0 mi East 8.1 mph - N/A   Clear
10:55 PM 48.2 °F - 8.6 °F 20% 30.41 in 10.0 mi NE 9.2 mph - N/A   Clear
11:15 PM 46.4 °F 42.4 °F 8.6 °F 22% 30.41 in 10.0 mi NE 8.1 mph - N/A   Clear
11:35 PM 44.6 °F 40.2 °F 6.8 °F 21% 30.41 in 10.0 mi NE 8.1 mph - N/A   Clear
11:55 PM 48.2 °F - 8.6 °F 20% 30.41 in 10.0 mi NE 6.9 mph - N/A   Clear